Omaha Offutt, NE

7:58 AM CDT on April 22, 2018 (GMT -0500)
Offutt Air Force Base

Weather History for KOFF - August, 2013

Change the Weather History Date:

Monday, August 5, 2013

  Actual Average Record
Temperature  
Mean Temperature 78 °F -  
Max Temperature 87 °F 82 °F 96 °F (2001)
Min Temperature 68 °F 64 °F 54 °F (2017)
Cooling Degree Days 12    
Growing Degree Days 28 (Base 50)    
Moisture  
Dew Point 71 °F    
Average Humidity 87    
Maximum Humidity 100    
Minimum Humidity 59    
Precipitation  
Precipitation 0.00 in - - ()
Sea Level Pressure  
Sea Level Pressure 29.93 in    
Wind  
Wind Speed 7 mph (SSE)    
Max Wind Speed 13 mph    
Max Gust Speed -    
Visibility 10 miles    
Events      
Averages and records for this station are not official NWS values.
T = Trace of Precipitation, MM = Missing Value Source: NWS Daily Summary

Daily Weather History Graph

Daily Weather History Graph

Search for Another Location

Airport or City:

Astronomy

Aug. 05, 2013 Rise Set
Actual Time 6:23 AM CDT 8:35 PM CDT
Civil Twilight 5:52 AM CDT 9:05 PM CDT
Nautical Twilight 5:15 AM CDT 9:42 PM CDT
Astronomical Twilight 4:34 AM CDT 10:23 PM CDT
Moon 5:19 AM CDT (8/5) 7:35 PM CDT (8/5)
Length of Visible Light 15h 12m
Length of Day
14h 11m
Waning Crescent, 1% of the Moon is Illuminated
Aug 5
Waning Crescent
Aug 6
New
Aug 14
First Quarter
Aug 20
Full
Aug 28
Last Quarter

Hourly Weather History & Observations

Time (CDT) Temp. Heat Index Dew Point Humidity Pressure Visibility Wind Dir Wind Speed Gust Speed Precip Events Conditions
12:03 AM 69.8 °F - 66.2 °F 88% 30.04 in 10.0 mi ESE 8.1 mph - N/A   Scattered Clouds
12:58 AM 68.4 °F - 66.9 °F 95% 30.03 in 10.0 mi SE 4.6 mph - N/A   Clear
1:23 AM 68.0 °F - 68.0 °F 100% 30.02 in 10.0 mi SSE 5.8 mph - N/A   Mostly Cloudy
1:33 AM 69.8 °F - 68.0 °F 94% 30.01 in 10.0 mi SE 8.1 mph - N/A   Mostly Cloudy
1:58 AM 69.1 °F - 68.0 °F 96% 29.99 in 10.0 mi SE 8.1 mph - N/A   Overcast
2:53 AM 69.8 °F - 68.0 °F 94% 29.98 in 10.0 mi SSE 8.1 mph - N/A   Overcast
2:58 AM 70.2 °F - 68.7 °F 95% 29.97 in 10.0 mi SE 9.2 mph - N/A   Overcast
3:03 AM 69.8 °F - 68.0 °F 94% 29.97 in 10.0 mi SE 6.9 mph - N/A   Overcast
3:58 AM 69.3 °F - 69.1 °F 99% 29.95 in 10.0 mi SE 8.1 mph - N/A   Overcast
4:38 AM 69.8 °F - 69.8 °F 100% 29.95 in 10.0 mi South 10.4 mph - N/A   Overcast
4:58 AM 70.0 °F - 69.8 °F 99% 29.94 in 10.0 mi South 8.1 mph - N/A   Overcast
5:58 AM 70.5 °F - 70.2 °F 99% 29.94 in 10.0 mi South 8.1 mph - N/A   Overcast
6:58 AM 70.9 °F - 70.5 °F 99% 29.94 in 8.0 mi South 5.8 mph - N/A   Overcast
7:58 AM 71.4 °F - 71.1 °F 99% 29.94 in 9.0 mi SSW 4.6 mph - N/A   Overcast
8:43 AM 71.6 °F - 71.6 °F 100% 29.94 in 10.0 mi South 4.6 mph - N/A   Overcast
8:58 AM 72.1 °F - 71.2 °F 97% 29.94 in 10.0 mi SSW 3.5 mph - N/A   Overcast
9:58 AM 75.4 °F - 71.2 °F 87% 29.94 in 10.0 mi WSW 4.6 mph - N/A   Overcast
10:03 AM 75.2 °F - 71.6 °F 89% 29.96 in 10.0 mi Variable 1.2 mph - N/A   Overcast
10:58 AM 76.5 °F - 71.2 °F 84% 29.95 in 10.0 mi SW 3.5 mph - N/A   Overcast
11:08 AM 78.8 °F - 71.6 °F 78% 29.96 in 10.0 mi West 5.8 mph - N/A   Overcast
11:13 AM 77.0 °F - 71.6 °F 83% 29.96 in 10.0 mi West 5.8 mph - N/A   Overcast
11:18 AM 78.8 °F - 71.6 °F 78% 29.95 in 10.0 mi Variable 1.2 mph - N/A   Overcast
11:58 AM 78.3 °F - 71.1 °F 78% 29.96 in 10.0 mi WNW 3.5 mph - N/A   Mostly Cloudy
12:41 PM - - - N/A% - - North 8.1 mph - N/A   Unknown
12:47 PM 78.8 °F - 71.6 °F 78% 29.96 in 10.0 mi North 5.8 mph - N/A   Mostly Cloudy
12:58 PM 78.8 °F - 71.4 °F 78% 29.92 in 10.0 mi ENE 5.8 mph - N/A   Mostly Cloudy
1:03 PM 78.8 °F - 71.6 °F 78% 29.91 in 10.0 mi ESE 8.1 mph - N/A   Mostly Cloudy
1:58 PM 80.6 °F 84.4 °F 71.4 °F 73% 29.88 in 10.0 mi SE 8.1 mph - N/A   Scattered Clouds
2:58 PM 84.4 °F 90.3 °F 72.3 °F 67% 29.84 in 10.0 mi SSW 12.7 mph - N/A   Partly Cloudy
3:58 PM 86.7 °F 93.3 °F 72.5 °F 62% 29.85 in 10.0 mi SSW 9.2 mph - N/A   Partly Cloudy
4:58 PM 86.5 °F 92.9 °F 72.1 °F 62% 29.86 in 10.0 mi SW 9.2 mph - N/A   Partly Cloudy
5:58 PM 87.3 °F 93.2 °F 71.4 °F 59% 29.86 in 10.0 mi SSW 4.6 mph - N/A   Partly Cloudy
6:58 PM 84.2 °F 89.9 °F 72.3 °F 67% 29.86 in 10.0 mi WSW 2.3 mph - N/A   Scattered Clouds
7:58 PM 80.6 °F 85.4 °F 73.6 °F 79% 29.87 in 10.0 mi North 4.6 mph - N/A   Clear
8:58 PM 78.6 °F - 73.8 °F 85% 29.85 in 10.0 mi NE 4.6 mph - N/A   Clear
9:58 PM 75.7 °F - 74.3 °F 95% 29.84 in 10.0 mi ENE 2.3 mph - N/A   Scattered Clouds
10:58 PM 76.5 °F - 74.5 °F 94% 29.86 in 10.0 mi South 4.6 mph - N/A   Scattered Clouds
11:58 PM 73.8 °F - 73.4 °F 99% 29.86 in 10.0 mi ENE 3.5 mph - N/A   Clear